Event Log

Records: 127 Pagina: 3 / 6 USB: 2592762E103 ×
CSV
ID Machine Gebeurtenis Tijd Uren Service Status USB ID
330435 40-033A bel powerrental voor onderhoud Warning 03-12-2025 09:40:09 4523 -Niet ingesteld 2592762E103
324349 40-033A Engine Stopped 05-11-2025 16:11:52 4512 -Niet ingesteld 2592762E103
324167 40-033A Engine Start 05-11-2025 08:07:12 4504 -Niet ingesteld 2592762E103
324168 40-033A Engine Stopped 05-11-2025 08:06:59 4504 -Niet ingesteld 2592762E103
324169 40-033A Charge Alternator Failure Shutdown 05-11-2025 08:06:52 4504 -Niet ingesteld 2592762E103
313558 40-033A Charge Alternator Failure Shutdown 04-10-2025 17:18:14 4497 -Niet ingesteld 2592762E103
313429 40-033A Battery Voltage 03-10-2025 08:48:38 4494 -Niet ingesteld 2592762E103
313427 40-033A Engine Stopped 03-10-2025 08:41:11 4494 -Niet ingesteld 2592762E103
313423 40-033A Fail to Reach Loading Frequency Warning 03-10-2025 08:30:36 4494 -Niet ingesteld 2592762E103
313424 40-033A Battery Voltage 03-10-2025 08:30:30 4494 -Niet ingesteld 2592762E103
312749 40-033A Engine Stopped 27-09-2025 16:21:15 4494 -Niet ingesteld 2592762E103
312731 40-033A Generator Over Current Warning 27-09-2025 07:39:49 4485 -Niet ingesteld 2592762E103
312672 40-033A Battery Voltage 26-09-2025 13:31:20 4467 -Niet ingesteld 2592762E103
312673 40-033A Engine Stopped 26-09-2025 13:31:13 4467 -Niet ingesteld 2592762E103
312668 40-033A Battery Voltage 26-09-2025 12:11:20 4466 -Niet ingesteld 2592762E103
312555 40-033A Engine Stopped 25-09-2025 14:36:50 4465 -Niet ingesteld 2592762E103
310432 40-033A Engine Stopped 12-09-2025 11:08:38 4448 -Niet ingesteld 2592762E103
310242 40-033A Battery Voltage 11-09-2025 10:17:22 4447 -Niet ingesteld 2592762E103
310243 40-033A Engine Stopped 11-09-2025 10:17:15 4447 -Niet ingesteld 2592762E103
307632 40-033A Battery Voltage 29-08-2025 06:26:50 4446 -Niet ingesteld 2592762E103
307438 40-033A Engine Stopped 27-08-2025 20:33:38 4431 -Niet ingesteld 2592762E103
307264 40-033A Engine Stopped 26-08-2025 20:17:19 4415 -Niet ingesteld 2592762E103
306739 40-033A Engine Stopped 22-08-2025 19:53:26 4358 -Niet ingesteld 2592762E103
302954 40-033A Engine Stopped 10-08-2025 09:14:28 4351 -Niet ingesteld 2592762E103
301957 40-033A Engine Stopped 01-08-2025 13:58:54 4176 -Niet ingesteld 2592762E103
51–75 van 127